Flag Weather past 2 weeks in Bălți, Moldova

Now
23 °F

Cold.


Feels Like: 15 °F
Forecast: 23 / 31 °F
Wind: 7 mph from Northeast

Location: Baltsi-Leadoveni - The North of Moldova

Current Time: Nov 29, 2014 at 1:13:44 AM

Latest Report: Nov 29, 2014 at 1:00 AM


Visibility: 4 mi

Pressure: 30.30 "Hg

Humidity: 93%

Dew point: 21 °F

Location of BălțiLocation

Historic Weather in Bălți — Graph

°F

Bălți temperature yesterday

Maximum temperature yesterday: 30 °F (at 3:00 PM)
Minimum temperature yesterday: 25 °F (at 10:00 PM)
Average temperature yesterday: 28 °F

Past Weeks' High & Low Weather Summary

 TemperatureHumidityPressure
High45 °F (Nov 14, 1:00 AM)100% (Nov 14, 5:30 PM)30.51 "Hg (Nov 14, 5:30 PM)
Low21 °F (Nov 25, 7:00 AM)70% (Nov 22, 11:00 AM)30.01 "Hg (Nov 20, 1:00 AM)
Average34 °F91%30.23 "Hg
* Reported Midnight between Nov 13 and Nov 14 — Midnight between Nov 28 and Nov 29, Bălți, Weather by CustomWeather, © 2014

Note: Actual official high and low records may vary slightly from our data, if they occured in-between our weather recording intervals... More about our weather records

Advertising

Bălți weather history for previous 24 hours

 ConditionsComfort  
Time TempWeatherWind HumidityBarometerVisibility
12:00 AM
Nov 29
25 °FCold.5 mph86%30.30 "Hg5 mi
11:00 PM
Nov 28
25 °FCold.5 mph93%30.30 "Hg6 mi
10:00 PM25 °FCold.3 mph93%30.30 "HgN/A
9:00 PM27 °FChilly.5 mph86%30.30 "HgN/A
8:00 PM27 °FChilly.7 mph86%30.30 "HgN/A
7:00 PM27 °FChilly.7 mph86%30.30 "HgN/A
6:30 PM28 °FChilly.7 mph80%30.27 "HgN/A
6:00 PM28 °FChilly.7 mph80%30.27 "HgN/A
5:30 PM28 °FChilly.6 mph80%30.27 "HgN/A
5:00 PM28 °FChilly.6 mph80%30.27 "HgN/A
4:00 PM28 °FBroken clouds.6 mph86%30.27 "HgN/A
3:30 PM30 °FPartly sunny.7 mph80%30.27 "HgN/A
3:00 PM30 °FOvercast.6 mph80%30.27 "HgN/A
2:00 PM28 °FOvercast.5 mph86%30.27 "HgN/A
1:30 PM28 °FMostly cloudy.6 mph93%30.27 "Hg4 mi
1:00 PM28 °FIce fog.5 mph93%30.27 "Hg3 mi
12:00 PM28 °FIce fog.5 mph93%30.27 "Hg2 mi
11:30 AM28 °FLight snow. Ice fog.2 mph93%30.30 "Hg1 mi
11:00 AM28 °FLight snow. Ice fog.No wind93%30.30 "Hg1 mi
10:00 AM28 °FChilly.No wind93%30.30 "Hg1 mi
9:00 AM27 °FChilly.No wind100%30.30 "Hg1 mi
8:00 AM27 °FChilly.2 mph100%30.27 "Hg1 mi
7:30 AM27 °FChilly.2 mph100%30.27 "Hg1 mi
7:00 AM27 °FChilly.3 mph100%30.27 "Hg1 mi
6:30 AM27 °FChilly.3 mph93%30.27 "Hg1 mi
6:00 AM27 °FChilly.5 mph93%30.27 "Hg1 mi
5:00 AM27 °FChilly.5 mph93%30.27 "Hg4 mi
4:00 AM28 °FChilly.3 mph86%30.27 "HgN/A
3:00 AM28 °FChilly.3 mph86%30.27 "Hg5 mi
2:00 AM28 °FChilly.2 mph93%30.27 "HgN/A
1:00 AM28 °FChilly.No wind93%30.27 "Hg6 mi
Weather by CustomWeather, © 2014

See weather overviewHow to use our weather pages